DELTA 1 DEB, 12175

Orbit data source: Space-Track

DELTA 1 DEB, 12175 is space debris in SSO originally from a launch on Sun, 05 Mar 1978 UTC launched from the Air Force Western Test Range (AFWTR). Debris objects in space refer to the collection of defunct objects orbiting the Earth. Examples of debris include non-operational satellites, rocket bodies, and fragments generated from explosions, collisions, or faulty payload assembly.

Loading next visibility...
Identifier
12175, 1978-026Q
Orbit
SSO
Country
Flag of USUS
Related business
Manufacturer
Unknown
Mission
Spacecraft
Bus & Motor
Unknown
Mass
Unknown
Launch date (UTC)
1978-03-05 (48 years ago)
Launch vehicle
Unknown
Launch site
Air Force Western Test Range (AFWTR)
Object type
Payload
Rocket body
Debris
Shape & HBR
Unknown shape, 0.5 m
Radar Cross Section
Medium (>0.1 m² and <1 m²)

Expand to show TLE details & history
Last TLE update: 2 days ago

TLE from 2 days ago
0 DELTA 1 DEB
1 12175U 78026Q   26171.33579750 -.00000039  00000-0  40690-5 0  9992
2 12175  99.2147  66.0245 0063616  40.9856  83.7087 13.97406987307701
Epoch: 2026-06-20T08:03Z
TLE epoch observation values (Epoch: 2026-06-20T08:03:32.904Z)
Latitude
53.65385°
Longitude
-130.74549°
Altitude
906.743 km
Speed
7.406 km/s
True Right ascension
17h 14m 46s
True Declination
53° 29' 34"
Sunlit
Object was in daylight at epoch
Visualization orbit readout
Latitude
Unknown
Longitude
Unknown
Altitude
Unknown
Speed
Unknown
Apparent Right ascension
Unknown
Apparent Declination
Unknown
Sunlit
N/A
Visualization observer readout
Local Sidereal Time
03:41:41
Azimuth
Unknown
Elevation
Unknown
Doppler factor
Unknown
Orbital elements
Apogee altitude
946.302 km
Perigee altitude
853.701 km
Semi-major axis
7,278.138 km
Eccentricity
0.00636
Inclination
99.2147°
RAAN
66.0245°
Arg. of periapsis
40.9856°
True anomaly
84.43391°
Mean anomaly
83.7087°
Eccentric anomaly
84.07124°
Mean motion
3.49553 °/min
Orbital period
102.99 mins
BSTAR
0.000004069
Loading maneuver chart data...
Computing Atmospheric mass density...

Documentation

Showing up to 5 results
|